Статистика

Перформанси вкупни на сите времиња
Алеја на славните
Најдобра Елите шампионат сезона
Менаџери со најмногу титули во Елит

Најдобри менаџери (според најмногу трки)
Најдобри менаџери (според најмногу победи)
Најдобри менаџери (според најмногу пол-позиции)
Најдобри менаџери (според најмногу поени)
Најдобри менаџери (според најмногу најбрзи круга)
Најдобри менаџери (според најмногу подиуми)
Најдобри менаџери (според просечно поени по трка)

Најдобри менаџери (според најмногу квалификациони рекорди)
Најдобри менаџери (според најмногу рекорди на патеки)
Најдобрите менаџери (по најмногу квалификациски успеси на влажна патека)
Најдобрите менаџери (по најмногу рекорди и успеси на влажна патека)
Најдобри менаџери (по вкупно најдобрите квалификациски времиња на круговите на сите патеки)
Најдобри менаџери (по лично најдобрите времиња поставени во квалификации на сите патеки )
Статистика на тимови
Активност во играта статистика
Статистика за форумот
Нации статистика
Други статистики
Најдобри менаџери (според највисоко ниво на болид)
Најдобри менаџери (според најдобар персонал и објекти)
Најдобри менаџери (според приходи од спонзори)
Најбогати менаџери
Добавувачи на гуми - статистика
Статистика за времето

Менаџери со најмногу трошоци
Менаџери со најмногу кругови во водство
Менаџери со најмногу освоени позиции
Менаџери со најмногу несреќи на почетокот
Менаџери со најмногу испаѓања од трка
Пласман ако сезоната беше една голема трка
Менаџери со најмногу хет-трика
Менаџери со најмногу Гранд Челем
Победа од најниска позиција
Менаџери со најмногу победи во низа
Менаџери со најмногу подиуми во низа
Менаџери со најмногу завршувања во поени во низа

Најмногу менаџери од иста резиденција
Најпопуларни бои на болидите
Сите менаџери со слика
Сите менаџери со алтер его слика
Сите менаџери со дизајнирани кациги
Најпопуларни пријатели
Статистика на достигнувањата
Персонал статистика
ГПРОподдржувачи статистика

Најдобри менаџери (по лично најдобрите времиња поставени во квалификации на сите патеки )
Оваа статистика ја користи сумата на остварени лични најдобри и најбрзи кругови од сите трки на секој менаџер.
За да бидете вклучен во ранкингот мора да имате учествувано барем во една трка на сите постоечки патеки.
 
Страница [12 3 ... 47 48 49 » Брзо оди на страница:
# Нац Име на менаџер Група Вкупно време
HH:MM:SS.XXXs
Заостанување
HH:MM:SS.XXXs
1. Roland Postle9 Elite 1:18:42.273s + 0.000s
2. Rimantas Sagatas2 Elite 1:19:01.430s + 19.157s
3. Róbert László2 Amateur - 60 1:19:05.742s + 23.469s
4. George Slater1 Elite 1:19:07.288s + 25.015s
5. Ioannis Dimitroglou4 Pro - 22 1:19:22.297s + 40.024s
6. Jasper Coosemans1 Elite 1:19:24.081s + 41.808s
7. Rafal Celejewski Elite 1:19:36.076s + 53.803s
8. Pablo Fernandez Elite 1:19:36.294s + 54.021s
9. Andrea Squizzato1 Elite 1:19:40.714s + 58.441s
10. Nevzat Kasapoglu Amateur - 14 1:19:42.426s + 0:01:00.153s
11. Toni Söyrinki Amateur - 53 1:19:42.522s + 0:01:00.249s
12. Gyuri Székely Elite 1:19:46.727s + 0:01:04.454s
13. Lee Harding Elite 1:19:49.549s + 0:01:07.276s
14. Łukasz Dudek1 Amateur - 39 1:19:52.371s + 0:01:10.098s
15. Harsh Sheth Master - 2 1:19:53.250s + 0:01:10.977s
16. Atis Praudins Elite 1:19:54.517s + 0:01:12.244s
17. Gonzalo Alvarez Amateur - 49 1:19:57.875s + 0:01:15.602s
18. Ania Piekarska Elite 1:19:58.879s + 0:01:16.606s
19. David Rolleston1 Elite 1:20:04.023s + 0:01:21.750s
20. Paweł Zaburski Master - 5 1:20:04.274s + 0:01:22.001s
21. Vsevolod Demydov2 Pro - 17 1:20:04.583s + 0:01:22.310s
22. Leandro Sereno7 Elite 1:20:05.245s + 0:01:22.972s
23. Theodosis Vogiatzis Amateur - 73 1:20:05.971s + 0:01:23.698s
24. Radek Czech2 Amateur - 64 1:20:06.157s + 0:01:23.884s
25. Carlos Esparza Amateur - 69 1:20:06.695s + 0:01:24.422s
26. Wouter Teuwen Master - 3 1:20:07.952s + 0:01:25.679s
27. Twig Fahaji Elite 1:20:11.635s + 0:01:29.362s
28. Jean-marc Boissinot Pro - 9 1:20:15.373s + 0:01:33.100s
29. Vladimir Islentiev2 Master - 2 1:20:15.874s + 0:01:33.601s
30. Ignacio Belatti Master - 1 1:20:16.065s + 0:01:33.792s
31. José Abi Jaudi Pro - 19 1:20:17.112s + 0:01:34.839s
32. Mihail Morozov Pro - 14 1:20:18.341s + 0:01:36.068s
33. Miel Soeterbroek Elite 1:20:19.844s + 0:01:37.571s
34. Florencia Caro Amateur - 58 1:20:20.919s + 0:01:38.646s
35. Paulo Pinto1 Rookie - 71 1:20:21.051s + 0:01:38.778s
36. Bert Huylebroeck Elite 1:20:22.725s + 0:01:40.452s
37. Jakab Zoltan Rookie - 68 1:20:25.264s + 0:01:42.991s
38. Max Watson Master - 5 1:20:25.924s + 0:01:43.651s
39. Joel Viitikko Master - 3 1:20:26.711s + 0:01:44.438s
40. Nuno Vicente Master - 4 1:20:31.189s + 0:01:48.916s
41. Antonio Gattulli Elite 1:20:33.649s + 0:01:51.376s
42. Gustavo Bellotto Master - 1 1:20:36.578s + 0:01:54.305s
43. Daniele Bontempo Elite 1:20:36.843s + 0:01:54.570s
44. Viktor Dyankov Pro - 25 1:20:39.597s + 0:01:57.324s
45. Ville Pohjanen Amateur - 69 1:20:40.231s + 0:01:57.958s
46. Michal Szopinski Master - 3 1:20:40.296s + 0:01:58.023s
47. Tomek Kiełpiński Amateur - 80 1:20:40.620s + 0:01:58.347s
48. Stefan Gommans Master - 2 1:20:41.005s + 0:01:58.732s
49. Jukka Sireni2 Rookie - 145 1:20:41.100s + 0:01:58.827s
50. Andrej Rilke Master - 1 1:20:41.134s + 0:01:58.861s
51. Ayman Daher Amateur - 65 1:20:42.003s + 0:01:59.730s
52. Patryk Janczak Elite 1:20:43.232s + 0:02:00.959s
53. Ahmet Sonverdi Pro - 13 1:20:43.846s + 0:02:01.573s
54. Andreas Ramann Pro - 6 1:20:45.494s + 0:02:03.221s
55. Peter Both Master - 1 1:20:45.705s + 0:02:03.432s
56. Marcin Żak Elite 1:20:46.206s + 0:02:03.933s
57. Maxim Kotov2 Pro - 14 1:20:46.815s + 0:02:04.542s
58. Aleksey Odegov Master - 2 1:20:46.865s + 0:02:04.592s
59. Jens Frostrup Master - 4 1:20:47.509s + 0:02:05.236s
60. Apostolis Goutzos Pro - 23 1:20:47.603s + 0:02:05.330s
61. Luca Molendi Master - 1 1:20:48.393s + 0:02:06.120s
62. Krisztián Veinperl Master - 5 1:20:51.617s + 0:02:09.344s
63. Kamal Naoui Elite 1:20:52.883s + 0:02:10.610s
64. Alex Holland Master - 5 1:20:52.920s + 0:02:10.647s
65. Dmitry Nechitailo Pro - 24 1:20:53.090s + 0:02:10.817s
66. Tamás Végh Amateur - 19 1:20:53.118s + 0:02:10.845s
67. Rafael Mantovani Amateur - 56 1:20:53.828s + 0:02:11.555s
68. Daniel Comalada Master - 4 1:20:53.863s + 0:02:11.590s
69. Kuba Szajbel Master - 4 1:20:54.043s + 0:02:11.770s
70. Mindaugas Bauža Master - 2 1:20:55.854s + 0:02:13.581s
71. András Bozóti Amateur - 27 1:20:56.534s + 0:02:14.261s
72. Michał Wilczyński Master - 5 1:20:57.526s + 0:02:15.253s
73. Pedro Moura Elite 1:20:57.585s + 0:02:15.312s
74. Rogerio Mandler Pro - 20 1:20:57.808s + 0:02:15.535s
75. Pedro Nazaré Amateur - 75 1:20:57.954s + 0:02:15.681s
76. Farcy Génel Master - 3 1:20:58.390s + 0:02:16.117s
77. Frederico Neves1 Amateur - 45 1:20:58.853s + 0:02:16.580s
78. Eduard Gindullin Master - 1 1:20:59.349s + 0:02:17.076s
79. Julien Prado Pro - 24 1:20:59.515s + 0:02:17.242s
80. Dmitry Shevel Master - 1 1:20:59.897s + 0:02:17.624s
81. Mikko Suhonen Amateur - 18 1:20:59.969s + 0:02:17.696s
82. Gary Mullins Pro - 24 1:21:00.772s + 0:02:18.499s
83. Gergő Csernátoni Pro - 15 1:21:02.011s + 0:02:19.738s
84. Jani Syrjäläinen Elite 1:21:02.952s + 0:02:20.679s
85. Alessandro Casagrande Master - 5 1:21:03.367s + 0:02:21.094s
86. Andreas Andreou Pro - 11 1:21:03.817s + 0:02:21.544s
87. Nikolay Borzenkov Pro - 10 1:21:05.157s + 0:02:22.884s
88. Martin Seppam Amateur - 19 1:21:05.660s + 0:02:23.387s
89. Aleksej Sutkin Amateur - 21 1:21:06.199s + 0:02:23.926s
90. Chew Kai Wen Elite 1:21:07.415s + 0:02:25.142s
91. Vladimir Jelicic Amateur - 27 1:21:07.941s + 0:02:25.668s
92. Grzesiek Jakubiak Amateur - 20 1:21:09.032s + 0:02:26.759s
93. Mika Pekkarinen Pro - 12 1:21:10.051s + 0:02:27.778s
94. Cédrick Flament Master - 3 1:21:11.486s + 0:02:29.213s
95. Stanislav Frolov Pro - 25 1:21:12.209s + 0:02:29.936s
96. Ethan Littlejohns Amateur - 8 1:21:12.210s + 0:02:29.937s
97. Ivan Silva Master - 5 1:21:12.252s + 0:02:29.979s
98. Jérôme Duluard Amateur - 61 1:21:12.909s + 0:02:30.636s
99. Paul Williams Master - 1 1:21:13.693s + 0:02:31.420s
100. Ilya Vedenikov Master - 2 1:21:14.578s + 0:02:32.305s
Страница [12 3 ... 47 48 49 » Брзо оди на страница: